Weather History for Bentonville, AR

Change the Weather History Date:

Thursday, January 30, 2014

  Actual Average Record
Temperature  
Mean Temperature 37 °F -  
Max Temperature 46 °F 47 °F 70 °F (1967)
Min Temperature 28 °F 24 °F -4 °F (1966)
Degree Days  
Heating Degree Days 28    
Moisture  
Dew Point 15 °F    
Average Humidity 44    
Maximum Humidity 70    
Minimum Humidity 31    
Precipitation  
Precipitation 0.00 in - - ()
Sea Level Pressure  
Sea Level Pressure 29.89 in    
Wind  
Wind Speed 13 mph (South)    
Max Wind Speed 25 mph    
Max Gust Speed 36 mph    
Visibility 10 miles    
Events      
Averages and records for this station are not official NWS values.
T = Trace of Precipitation, MM = Missing Value Source: NWS Daily Summary

Daily Weather History Graph

Daily Weather History Graph

Search for Another Location

Airport:

Trip Planner

Search our weather history database for the weather conditions in past years. The results will help you decide how hot, cold, wet, or windy it might be!

Date:

Astronomy

Jan. 30, 2014 Rise Set
Actual Time 7:19 AM CST 5:41 PM CST
Civil Twilight 6:52 AM CST 6:08 PM CST
Nautical Twilight 6:21 AM CST 6:39 PM CST
Astronomical Twilight 5:51 AM CST 7:09 PM CST
Moon 6:47 AM CST (1/30) 5:52 PM CST (1/30)
Length of Visible Light 11h 15m
Length of Day
10h 21m
Waning Crescent, 0% of the Moon is Illuminated
Jan 30
Waning Crescent
Jan 30
New
Feb 6
First Quarter
Feb 14
Full
Feb 22
Last Quarter

Hourly Weather History & Observations

Time (CST) Temp. Windchill Dew Point Humidity Pressure Visibility Wind Dir Wind Speed Gust Speed Precip Events Conditions
12:15 AM 30.2 °F 20.8 °F 5.0 °F 34% 30.04 in 10.0 mi SSW 11.5 mph - N/A   Clear
12:35 AM 30.2 °F 20.2 °F 6.8 °F 37% 30.04 in 10.0 mi SSW 12.7 mph - N/A   Clear
12:55 AM 30.2 °F 20.8 °F 5.0 °F 34% 30.04 in 10.0 mi SSW 11.5 mph - N/A   Clear
1:15 AM 30.2 °F 21.3 °F 5.0 °F 34% 30.03 in 10.0 mi South 10.4 mph - N/A   Clear
1:35 AM 30.2 °F 21.3 °F 5.0 °F 34% 30.02 in 10.0 mi South 10.4 mph - N/A   Clear
1:55 AM 28.4 °F 19.1 °F 5.0 °F 37% 30.02 in 10.0 mi South 10.4 mph - N/A   Clear
2:15 AM 28.4 °F 18.5 °F 5.0 °F 37% 30.01 in 10.0 mi South 11.5 mph - N/A   Clear
2:35 AM 28.4 °F 18.0 °F 5.0 °F 37% 30.00 in 10.0 mi South 12.7 mph 17.3 mph N/A   Clear
2:55 AM 28.4 °F 19.1 °F 6.8 °F 40% 29.99 in 10.0 mi South 10.4 mph 17.3 mph N/A   Clear
3:15 AM 28.4 °F 18.0 °F 6.8 °F 40% 29.98 in 10.0 mi South 12.7 mph 18.4 mph N/A   Clear
3:35 AM 30.2 °F 19.3 °F 6.8 °F 37% 29.96 in 10.0 mi South 15.0 mph 23.0 mph N/A   Clear
3:55 AM 30.2 °F 19.3 °F 6.8 °F 37% 29.95 in 10.0 mi South 15.0 mph 19.6 mph N/A   Clear
4:15 AM 30.2 °F 18.5 °F 6.8 °F 37% 29.93 in 10.0 mi South 17.3 mph 20.7 mph N/A   Clear
4:35 AM 30.2 °F 19.8 °F 6.8 °F 37% 29.92 in 10.0 mi South 13.8 mph 23.0 mph N/A   Clear
4:55 AM 30.2 °F 20.2 °F 6.8 °F 37% 29.91 in 10.0 mi South 12.7 mph 23.0 mph N/A   Clear
5:15 AM 30.2 °F 17.8 °F 6.8 °F 37% 29.89 in 10.0 mi South 19.6 mph 26.5 mph N/A   Clear
5:35 AM 30.2 °F 19.3 °F 6.8 °F 37% 29.90 in 10.0 mi South 15.0 mph 21.9 mph N/A   Clear
5:55 AM 30.2 °F 19.3 °F 6.8 °F 37% 29.92 in 10.0 mi South 15.0 mph 21.9 mph N/A   Clear
6:15 AM 30.2 °F 18.5 °F 8.6 °F 40% 29.89 in 10.0 mi South 17.3 mph 24.2 mph N/A   Clear
6:35 AM 30.2 °F 18.5 °F 8.6 °F 40% 29.89 in 10.0 mi South 17.3 mph 21.9 mph N/A   Clear
6:55 AM 30.2 °F 18.9 °F 8.6 °F 40% 29.90 in 10.0 mi South 16.1 mph 25.3 mph N/A   Clear
7:15 AM 30.2 °F 18.5 °F 8.6 °F 40% 29.88 in 10.0 mi South 17.3 mph 23.0 mph N/A   Clear
7:35 AM 30.2 °F 20.2 °F 8.6 °F 40% 29.89 in 10.0 mi South 12.7 mph 21.9 mph N/A   Clear
7:55 AM 30.2 °F 18.5 °F 8.6 °F 40% 29.88 in 10.0 mi South 17.3 mph 25.3 mph N/A   Clear
8:15 AM 32.0 °F 21.2 °F 10.4 °F 41% 29.87 in 10.0 mi South 16.1 mph 23.0 mph N/A   Clear
8:35 AM 33.8 °F 22.2 °F 10.4 °F 38% 29.87 in 10.0 mi South 20.7 mph 32.2 mph N/A   Clear
8:55 AM 33.8 °F 21.3 °F 10.4 °F 38% 29.86 in 10.0 mi South 24.2 mph 33.4 mph N/A   Clear
9:15 AM 33.8 °F 21.9 °F 10.4 °F 38% 29.84 in 10.0 mi South 21.9 mph 33.4 mph N/A   Clear
9:35 AM 35.6 °F 24.5 °F 10.4 °F 35% 29.84 in 10.0 mi South 20.7 mph 28.8 mph N/A   Clear
9:55 AM 37.4 °F 26.1 °F 12.2 °F 36% 29.85 in 10.0 mi South 24.2 mph 29.9 mph N/A   Clear
10:15 AM 37.4 °F 25.9 °F 12.2 °F 36% 29.86 in 10.0 mi SSW 25.3 mph 33.4 mph N/A   Clear
10:35 AM 39.2 °F 28.3 °F 12.2 °F 33% 29.85 in 10.0 mi South 25.3 mph 32.2 mph N/A   Clear
10:55 AM 39.2 °F 28.5 °F 12.2 °F 33% 29.84 in 10.0 mi SSW 24.2 mph 34.5 mph N/A   Clear
11:15 AM 41.0 °F 31.6 °F 12.2 °F 31% 29.84 in 10.0 mi South 20.7 mph 35.7 mph N/A   Clear
11:35 AM 41.0 °F 31.1 °F 14.0 °F 33% 29.83 in 10.0 mi South 23.0 mph 33.4 mph N/A   Clear
11:55 AM 42.8 °F 33.3 °F 15.8 °F 34% 29.83 in 10.0 mi SSW 24.2 mph 34.5 mph N/A   Clear
12:15 PM 42.8 °F 33.5 °F 15.8 °F 34% 29.82 in 10.0 mi SSW 23.0 mph 29.9 mph N/A   Clear
12:35 PM 44.6 °F 37.4 °F 15.8 °F 31% 29.81 in 10.0 mi SSW 16.1 mph 31.1 mph N/A   Clear
12:55 PM 46.4 °F 39.2 °F 19.4 °F 34% 29.81 in 10.0 mi SSW 18.4 mph 26.5 mph N/A   Clear
1:15 PM 46.4 °F 39.0 °F 17.6 °F 32% 29.81 in 10.0 mi SW 19.6 mph 27.6 mph N/A   Clear
1:35 PM 46.4 °F 39.8 °F 19.4 °F 34% 29.81 in 10.0 mi SSW 16.1 mph 24.2 mph N/A   Clear
1:55 PM 46.4 °F 40.1 °F 19.4 °F 34% 29.80 in 10.0 mi SSW 15.0 mph 24.2 mph N/A   Clear
2:15 PM 46.4 °F 40.1 °F 21.2 °F 37% 29.81 in 10.0 mi SSW 15.0 mph 21.9 mph N/A   Clear
2:35 PM 46.4 °F 40.7 °F 21.2 °F 37% 29.81 in 10.0 mi SW 12.7 mph 18.4 mph N/A   Clear
2:55 PM 46.4 °F 40.1 °F 23.0 °F 40% 29.82 in 10.0 mi SSW 15.0 mph 18.4 mph N/A   Clear
3:15 PM 46.4 °F 40.1 °F 23.0 °F 40% 29.83 in 10.0 mi SSW 15.0 mph 23.0 mph N/A   Clear
3:35 PM 46.4 °F 40.1 °F 23.0 °F 40% 29.83 in 10.0 mi SSW 15.0 mph 20.7 mph N/A   Clear
3:55 PM 46.4 °F 40.4 °F 24.8 °F 43% 29.84 in 10.0 mi SSW 13.8 mph 20.7 mph N/A   Clear
4:15 PM 46.4 °F 41.1 °F 23.0 °F 40% 29.85 in 10.0 mi SSW 11.5 mph - N/A   Clear
4:35 PM 44.6 °F 38.8 °F 23.0 °F 43% 29.85 in 10.0 mi SSW 11.5 mph 17.3 mph N/A   Clear
4:55 PM 44.6 °F 38.4 °F 23.0 °F 43% 29.85 in 10.0 mi SW 12.7 mph - N/A   Clear
5:15 PM 42.8 °F 37.0 °F 24.8 °F 49% 29.86 in 10.0 mi SW 10.4 mph - N/A   Clear
5:35 PM 42.8 °F 39.3 °F 23.0 °F 46% 29.87 in 10.0 mi SW 5.8 mph - N/A   Clear
5:55 PM 41.0 °F 38.0 °F 23.0 °F 49% 29.87 in 10.0 mi South 4.6 mph - N/A   Clear
6:15 PM 39.2 °F - 23.0 °F 52% 29.87 in 10.0 mi Calm Calm - N/A   Clear
6:35 PM 39.2 °F 35.9 °F 23.0 °F 52% 29.87 in 10.0 mi SSE 4.6 mph - N/A   Clear
6:55 PM 37.4 °F 32.8 °F 23.0 °F 56% 29.89 in 10.0 mi SSE 5.8 mph - N/A   Clear
7:15 PM 35.6 °F 31.7 °F 21.2 °F 56% 29.89 in 10.0 mi South 4.6 mph - N/A   Clear
7:35 PM 35.6 °F 31.7 °F 23.0 °F 60% 29.90 in 10.0 mi South 4.6 mph - N/A   Clear
7:55 PM 37.4 °F 32.8 °F 23.0 °F 56% 29.90 in 10.0 mi South 5.8 mph - N/A   Clear
8:15 PM 35.6 °F 31.7 °F 23.0 °F 60% 29.90 in 10.0 mi SE 4.6 mph - N/A   Clear
8:35 PM 35.6 °F 31.7 °F 23.0 °F 60% 29.90 in 10.0 mi SE 4.6 mph - N/A   Clear
8:55 PM 35.6 °F 30.7 °F 23.0 °F 60% 29.89 in 10.0 mi SE 5.8 mph - N/A   Clear
9:15 PM 33.8 °F 27.7 °F 21.2 °F 60% 29.90 in 10.0 mi SE 6.9 mph - N/A   Clear
9:35 PM 33.8 °F 28.6 °F 23.0 °F 65% 29.90 in 10.0 mi ESE 5.8 mph - N/A   Clear
9:55 PM 33.8 °F 28.6 °F 23.0 °F 65% 29.90 in 10.0 mi SE 5.8 mph - N/A   Clear
10:15 PM 33.8 °F 27.7 °F 23.0 °F 65% 29.89 in 10.0 mi SE 6.9 mph - N/A   Clear
10:35 PM 33.8 °F 28.6 °F 23.0 °F 65% 29.90 in 10.0 mi SE 5.8 mph - N/A   Clear
10:55 PM 32.0 °F 27.5 °F 23.0 °F 69% 29.90 in 10.0 mi SE 4.6 mph - N/A   Clear
11:15 PM 33.8 °F 29.6 °F 24.8 °F 70% 29.90 in 10.0 mi SSE 4.6 mph - N/A   Clear
11:35 PM 33.8 °F 30.8 °F 23.0 °F 65% 29.90 in 10.0 mi SSE 3.5 mph - N/A   Clear
11:55 PM 33.8 °F 30.8 °F 23.0 °F 65% 29.90 in 10.0 mi SE 3.5 mph - N/A   Clear